DANDE (39267 NORAD) Tracking and Keplerian Element Data

This shows tracking and keplerian element data for the satellite.

Feedback or suggestion? Click here.




ElementValue
Catalog39267
NameDANDE
Epoch Orbit22958
Epoch Day75.22133382
Epoch Year2018
RAAN108.1432
Inclination81.0092
Eccentricity0.0706309
Argument of Perigee208.5901
Mean Anonmoly147.4793
Mean Motion14.18669962
Decay Rate3.347E-05
L11 39267U 13055C 18075.22133382 .00003347 00000-0 99423-4 0 9994
L22 39267 81.0092 108.1432 0706309 208.5901 147.4793 14.18669962229581

Live tracking and technical data element details for DANDE (NORAD 39267). DANDE can be tracked NOW for your location showing map with azimuth and elevation plus other details from your city location.

Track the satellite on the map from your city or location and see movement details for azimuth, elevation, latitude, longitude, range, height, and movement on the map or in text.







IsCatalogInMostPopularTable: catalog: 39267, numindb: 98
Update: records affected: 1



GetName: 39267 DANDE

Hit Count: updated at: Sat, 15 Dec 2018 14:48:14 GMT